www.pogodaiklimat.ru

Погода и климат >> Архив погоды >> Канада >> Нунавут >> Холл Бич


ПОГОДА в Холл Бич

  • Прогноз погоды в Холл Бич
  • Монитор погоды в Холл Бич

АРХИВ ПОГОДЫ в Холл Бич

Время (UTC), дата Ветер
(напр.,м/с)
 
Видим.   Явления Облачность Т
(С)
Тd
(С)
f
(%)
Тe
(С)
Тes
(С)
Комфортность P
(гПа)
Po
(гПа)
Тmin
(С)
Tmax
(С)
R
(мм)
R24
(мм)
S
(см)
06 11.07 ЮВ 7 н/о н/о +2.8 -2 -2 1003.1 1002.3 +2.2 +5.3 22
09 11.07 ЮВ 6 н/о н/о +3.2 -1 -1 1002.5 1001.7
12 11.07 ЮВ 5 н/о н/о +3.0 -1 -1 1001.8 1001.0 +2.2 +5.3
15 11.07 ЮВ 6 н/о н/о +3.2 +3.2 100 -3 -3 1000.9 1000.0
18 11.07 ЮВ 5 н/о н/о +2.6 +2.6 100 -3 -3 1000.4 999.5 +2.0 +3.8
21 11.07 ЮВ 6 н/о н/о +1.8 -2 -2 999.9 999.0
00 12.07 В 5 н/о н/о +3.5 +3.4 99 -2 -2 999.5 998.7 +1.7 +3.9
03 12.07 ЮВ 6 н/о н/о +3.4 +3.4 100 -3 -3 998.7 997.9
06 12.07 ЮВ 4 н/о н/о +2.4 +2.4 100 -3 -3 998.5 997.6 +1.7 +4.2
09 12.07 ЮВ 5 н/о н/о +2.8 +2.8 100 -3 -3 998.6 997.7
12 12.07 В 3 н/о н/о +2.6 0 0 998.6 997.8 +1.6 +4.2
15 12.07 ЮВ 5 н/о н/о +2.8 +2.8 100 -3 -3 998.2 997.4
18 12.07 В 5 н/о н/о +2.8 +2.8 100 -3 -3 998.5 997.6 +1.6 +4.1
21 12.07 ЮВ 6 н/о н/о +2.8 +2.8 100 -3 -3 998.5 997.6
00 13.07 ЮВ 6 н/о н/о +3.5 +3.5 100 -2 -2 998.5 997.7 +1.6 +4.5
03 13.07 ЮВ 6 н/о н/о +3.5 +3.5 100 -2 -2 998.4 997.6
06 13.07 ЮВ 7 н/о н/о +3.0 +3.0 100 -3 -3 998.2 997.3 +1.6 +4.5 6
09 13.07 В 6 н/о н/о +2.1 -2 -2 997.4 996.5
12 13.07 В 5 н/о н/о +3.0 -1 -1 995.9 995.1 +1.2 +4.5
15 13.07 ЮВ 6 н/о н/о +2.6 -1 -1 995.1 994.3
18 13.07 В 5 н/о {осадки} н/о +2.4 -1 -1 994.6 993.7 +1.2 +3.3 0.2
21 13.07 ЮВ 4 н/о н/о +2.8 0 0 994.5 993.6 2
00 14.07 В 6 н/о {осадки} н/о +2.6 -1 -1 994.5 993.6 +1.2 +3.2 2
03 14.07 ЮЗ 6 н/о н/о +4.0 0 0 996.2 995.4
06 14.07 Ю 5 н/о н/о +4.8 +4.8 100 -0 -0 998.5 997.7 +1.2 +5.2 8
09 14.07 Ю 6 н/о н/о +4.7 +4.3 97 -1 -1 1000.6 999.8
12 14.07 ЮВ 5 н/о н/о +5.0 +4.3 95 0 0 1002.3 1001.5 +2.4 +5.2
15 14.07 ЮВ 5 н/о н/о +4.1 +3.4 95 -1 -1 1003.2 1002.5
18 14.07 ЮВ 7 н/о н/о +4.6 +4.1 97 -1 -1 1003.3 1002.6 +2.2 +6.9
21 14.07 ЮВ 7 н/о н/о +4.0 +3.4 96 -2 -2 1003.9 1003.2
00 15.07 ЮВ 5 н/о н/о +3.7 +3.3 97 -1 -1 1003.9 1003.2 +3.3 +6.1
03 15.07 ЮВ 5 н/о н/о +3.5 +3.4 99 -2 -2 1004.2 1003.4
06 15.07 ЮВ 5 н/о н/о +2.4 +2.4 100 -3 -3 1004.1 1003.3 +2.3 +6.9 20
09 15.07 В 5 н/о н/о +2.6 +2.6 100 -3 -3 1004.4 1003.6
12 15.07 ЮВ 3 н/о н/о +2.8 +2.5 98 -1 -1 1005.0 1004.2 +2.3 +6.9
15 15.07 В 6 н/о н/о +4.2 +3.2 93 -1 -1 1005.1 1004.3 0.2
18 15.07 В 5 н/о {осадки} н/о +3.9 +3.0 94 -1 -1 1005.1 1004.3 +2.3 +5.9 0.2
21 15.07 ЮВ 4 н/о н/о +4.1 +3.5 96 -0 -0 1005.3 1004.5
00 16.07 ЮВ 5 н/о н/о +5.2 +4.1 93 +1 +1 1005.5 1004.8 +2.3 +6.3
03 16.07 ЮВ 1 н/о н/о +4.1 +3.8 98 +2 +2 1005.6 1004.9
06 16.07 В 3 н/о н/о +2.1 +2.1 100 -2 -2 1005.5 1004.6 +2.0 +6.3 17
09 16.07 В 2 н/о н/о +1.8 +1.8 100 -1 -1 1005.3 1004.4
12 16.07 В 8 н/о н/о +2.4 -3 -3 1005.2 1004.4 +1.5 +6.3
15 16.07 В 2 н/о н/о +5.7 +5.7 100 +3 +3 1004.3 1003.7
18 16.07 В 3 н/о н/о +4.8 +3.9 94 +1 +1 1003.8 1003.0 +1.5 +6.7
21 16.07 ЮВ 3 н/о н/о +5.6 +5.3 98 +2 +2 1003.1 1002.3
00 17.07 Ю 3 н/о н/о +7.6 +6.2 91 +5 +5 1002.1 1001.5 +1.5 +8.0
03 17.07 Ю 2 н/о н/о +6.0 +5.7 98 +3 +3 1001.0 1000.4
06 17.07 Ю 4 н/о н/о +4.3 +4.3 100 -0 -0 999.9 999.2 +1.5 +8.0 15
09 17.07 ЮВ 4 н/о н/о +3.8 +3.8 100 -1 -1 999.3 998.6
12 17.07 ЮВ 5 н/о н/о +3.7 +3.5 99 -1 -1 998.9 998.3 +2.5 +8.0
15 17.07 ЮВ 4 н/о н/о +5.2 +4.3 94 +1 +1 998.1 997.5
18 17.07 ЮВ 5 н/о н/о +5.2 +4.3 94 +1 +1 998.0 997.3 +2.5 +5.5
21 17.07 ЮВ 6 н/о н/о +5.4 +4.8 96 0 0 997.5 996.8
00 18.07 ЮВ 7 н/о н/о +2.8 +2.8 100 -4 -4 997.2 996.4 +2.5 +6.5
03 18.07 ЮВ 6 н/о н/о +2.3 -2 -2 997.1 996.3

 

Местоположение метеостанции Холл Бич (Нунавут, Канада): широта 68.78 долгота -81.25 высота над уровнем моря 8 м.

В архиве по умолчанию представлена погода в Холл Бич за последнюю неделю. Архивные данные за месяц целиком и за предыдущие месяцы, начиная с января 2011 года, Вы можете получить, выбрав интересующий диапазон дат из раскрывающегося списка и нажав кнопку "Ввод!".


*Определитесь, кто Вы:
робот инопланетянин человек

Внимание! Время в таблицах - всемирное. Для получения местного времени необходимо прибавить поправку, которая равна -5 ч.

Смотрите также архив погоды в соседних городах и на ближайших метеорологических станциях:

Погода на Острове Роули (Нунавут, Канада) (95 км)
Погода в Лонгстафф-Блаффе (Нунавут, Канада) (246 км)
Погода в Кам Фор (Нунавут, Канада) (345 км)
Погода в Кугааруке (Нунавут, Канада) (347 км)
Погода в Делавер-Лейксе (Нунавут, Канада) (407 км)
Погода в Понд-Инлете (Нунавут, Канада) (450 км)
Погода в Понд-Инлете (Нунавут, Канада) (452 км)
Погода в Вейджер Бэй (Нунавут, Канада) (476 км)
Погода в Арктик Бей (Нунавут, Канада) (489 км)
Погода в Шеперд-Бее (Нунавут, Канада) (489 км)

Пояснения к столбцам:

Ветер - указаны скорость ветра в м/с - средняя за 10 мин, порывы в срок и между сроками (в фигурных скобках) и направление, откуда дует ветер: С - северный, СВ - северо-восточный, В - восточный, ЮВ - юго-восточный, Ю - южный, ЮЗ - юго-западный, З - западный, СЗ - северо-западный.
Видимость - горизонтальная дальность видимости в метрах или километрах. При видимости от 1 до 10 км при отсутствии осадков обычно наблюдается дымка, при ухудшении видимости до 1 км и менее - туман. В сухую погоду видимость может ухудшаться дымом, пылью или мглою.
Явления - указаны атмосферные явления, наблюдавшиеся в срок или в последний час перед сроком; фигурными скобками обозначены явления, наблюдавшиеся между сроками (за 1-3 часа до срока); квадратными скобками обозначены град или гололедные отложения с указанием их диаметра в мм.
Облачность - указаны через наклонную черту общая и нижняя облачность в баллах и высота нижней границы облаков в метрах; квадратными скобками обозначены формы облаков: Ci - перистые, Cs - перисто-слоистые, Cc - перисто-кучевые, Ac - высококучевые, As - высокослоистые, Sc - слоисто-кучевые, Ns - слоисто-дождевые, Cu - кучевые, Cb - кучево-дождевые. Подробнее классификацию облаков см. в Атласе облаков (PDF).
T - Температура воздуха - температура, измеренная на высоте 2 м над землей.
Td - Температура точки росы - температура, при понижении до которой содержащийся в воздухе водяной пар достигнет насыщения.
f - Относительная влажность воздуха - влажноcть воздуха, измеренная на высоте 2 м над землей.
Te - Эффективная температура - температура, которую ощущает одетый по сезону человек в тени. Характеристика душности погоды. При расчете учитывается влияние влажности воздуха и скорости ветра на теплоощущения человека.
Tes - Эффективная температура на солнце - температура, которую ощущает человек, с поправкой на солнечный нагрев. Характеристика знойности погоды. Зависит от высоты солнца над горизонтом, облачности и скорости ветра. Ночью, в пасмурную погоду, а также при ветре 12 м/с и более поправка равна нулю.
P - Атмосферное давление - приведенное к уровню моря атмосферное давление.
Po - Атмосферное давление - измеренное на уровне метеостанции атмосферное давление.
Tmin - Минимальная температура - минимум температуры воздуха на высоте 2 м над землей.
Tmax - Максимальная температура - максимум температуры воздуха на высоте 2 м над землей.
R - Количество осадков - Количество выпавших осадков за период времени, мм. При наведении курсора мыши на число - период времени, за который выпало указанное количество осадков.
R24 - Количество осадков - Количество выпавших осадков за 24 часа, мм.
S - Снежный покров - Высота снежного покрова, см. При наведении курсора мыши на число - состояние снежного покрова и степень покрытия местности в баллах.